This is the latest recevied weather packets stored in our database for station/object KF6YUA. If no packets are shown the sender has not sent any weather packets the latest 1 day(s).
| Time | Temp. | Humidity | Pressure | Rain* | Wind** | Luminosity | Snow |
|---|---|---|---|---|---|---|---|
| 1778011772 | 17.22° C | 76% | 1018 hPa | 0 mm | 0 m/s | 187 W/m² | - |
| 1778011470 | 16.67° C | 76% | 1017.7 hPa | 0 mm | 0 m/s | 232 W/m² | - |
| 1778011165 | 17.22° C | 76% | 1017.9 hPa | 0 mm | 0 m/s | 230 W/m² | - |
| 1778010863 | 17.78° C | 75% | 1017.7 hPa | 0 mm | 0.89 m/s, 163° | 237 W/m² | - |
| 1778010560 | 17.22° C | 77% | 1018 hPa | 0 mm | 0 m/s | 253 W/m² | - |
| 1778010257 | 16.67° C | 77% | 1018 hPa | 0 mm | 0.89 m/s, 162° | 257 W/m² | - |
| 1778009957 | 17.78° C | 76% | 1017.7 hPa | 0 mm | 0.89 m/s, 128° | 224 W/m² | - |
| 1778009655 | 17.78° C | 75% | 1018.1 hPa | 0 mm | 0.89 m/s, 68° | 289 W/m² | - |
| 1778009353 | 17.78° C | 73% | 1018 hPa | 0 mm | 0.89 m/s, 148° | 414 W/m² | - |
| 1778009050 | 18.33° C | 74% | 1018.1 hPa | 0 mm | 0 m/s | 816 W/m² | - |
| 1778008748 | 18.33° C | 75% | 1017.8 hPa | 0 mm | 0 m/s | 645 W/m² | - |
| 1778008447 | 17.22° C | 78% | 1018 hPa | 0 mm | 0 m/s | 650 W/m² | - |
| 1778008143 | 16.67° C | 79% | 1017.9 hPa | 0 mm | 0 m/s | 630 W/m² | - |
| 1778007838 | 16.67° C | 81% | 1018.1 hPa | 0 mm | 0 m/s | 751 W/m² | - |
| 1778007533 | 17.22° C | 80% | 1018.1 hPa | 0 mm | 0.89 m/s, 180° | 278 W/m² | - |
| 1778007230 | 16.67° C | 81% | 1018.1 hPa | 0 mm | 0 m/s | 267 W/m² | - |
| 1778006927 | 16.67° C | 79% | 1018 hPa | 0 mm | 0 m/s | 253 W/m² | - |
| 1778006624 | 15.56° C | 80% | 1018.1 hPa | 0 mm | 0 m/s | 264 W/m² | - |
| 1778006321 | 16.67° C | 77% | 1018.1 hPa | 0 mm | 0.89 m/s, 183° | 268 W/m² | - |
| 1778006018 | 17.22° C | 77% | 1017.9 hPa | 0 mm | 0 m/s | 345 W/m² | - |
| 1778005714 | 17.22° C | 76% | 1018 hPa | 0 mm | 0.45 m/s, 166° | 294 W/m² | - |
| 1778005411 | 16.67° C | 76% | 1018.2 hPa | 0 mm | 0 m/s | 395 W/m² | - |
| 1778005108 | 16.67° C | 78% | 1018.1 hPa | 0 mm | 0.45 m/s, 151° | 372 W/m² | - |
| 1778004805 | 16.11° C | 78% | 1017.8 hPa | 0 mm | 0.89 m/s, 156° | 322 W/m² | - |
| 1778004502 | 16.11° C | 80% | 1018.1 hPa | 0 mm | 0 m/s | 377 W/m² | - |
* Rain latest hour (hover to see other rain measurements)
** Current wind speed in m/s (hover to see current wind gust speed)